Location: Stanford
(52.2833°N, 2.4333°W)
Time: 01:19:46
(UTC+00:00)

Meteor 2-8 Rocket - Pass Details

Date: 22 January 2021
Orbit: 937 x 957 km, 82.5° (Epoch: 28 February)

Event Time Altitude Azimuth Distance (km) Brightness Sun altitude
Rises 18:46:13 0° 349° (N) 3,616 7.5 -19.0°
Reaches altitude 10° 18:48:43 10° 351° (N) 2,670 6.8 -19.4°
Maximum altitude 18:54:50 78° 78° (ENE) 970 4.3 -20.3°
Drops below altitude 10° 19:00:57 10° 165° (SSE) 2,664 6.7 -21.3°
Sets 19:03:26 0° 167° (SSE) 3,608 7.4 -21.6°
